Year,Month,Day,Hour,Minute,Value (Times are PST for temperature in C)
2014,03,23,00,00,3.50
2014,03,23,00,01,3.50
2014,03,23,00,02,3.50
2014,03,23,00,03,3.50
2014,03,23,00,04,3.50
2014,03,23,00,05,3.60
2014,03,23,00,06,3.60
2014,03,23,00,07,3.60
2014,03,23,00,08,3.60
2014,03,23,00,09,3.60
2014,03,23,00,10,3.60
2014,03,23,00,11,3.60
2014,03,23,00,12,3.60
2014,03,23,00,13,3.60
2014,03,23,00,14,3.70
2014,03,23,00,15,3.70
2014,03,23,00,16,3.70
2014,03,23,00,17,3.70
2014,03,23,00,18,3.70
2014,03,23,00,19,3.70
2014,03,23,00,20,3.70
2014,03,23,00,21,3.70
2014,03,23,00,22,3.70
2014,03,23,00,23,3.70
2014,03,23,00,24,3.70
2014,03,23,00,25,3.70
2014,03,23,00,26,3.80
2014,03,23,00,27,3.70
2014,03,23,00,28,3.70
2014,03,23,00,29,3.70
2014,03,23,00,30,3.70
2014,03,23,00,31,3.70
2014,03,23,00,32,3.70
2014,03,23,00,33,3.70
2014,03,23,00,34,3.70
2014,03,23,00,35,3.70
2014,03,23,00,36,3.70
2014,03,23,00,37,3.70
2014,03,23,00,38,3.70
2014,03,23,00,39,3.70
2014,03,23,00,40,3.70
2014,03,23,00,41,3.70
2014,03,23,00,42,3.70
2014,03,23,00,43,3.70
2014,03,23,00,44,3.60
2014,03,23,00,45,3.60
2014,03,23,00,46,3.60
2014,03,23,00,47,3.60
2014,03,23,00,48,3.60
2014,03,23,00,49,3.60
2014,03,23,00,50,3.60
2014,03,23,00,51,3.50
2014,03,23,00,52,3.50
2014,03,23,00,53,3.50
2014,03,23,00,54,3.50
2014,03,23,00,55,3.50
2014,03,23,00,56,3.40
2014,03,23,00,57,3.40
2014,03,23,00,58,3.40
2014,03,23,00,59,3.40
2014,03,23,01,00,3.40
2014,03,23,01,01,3.40
2014,03,23,01,02,3.40
2014,03,23,01,03,3.40
2014,03,23,01,04,3.40
2014,03,23,01,05,3.40
2014,03,23,01,06,3.40
2014,03,23,01,07,3.40
2014,03,23,01,08,3.40
2014,03,23,01,09,3.40
2014,03,23,01,10,3.40
2014,03,23,01,11,3.40
2014,03,23,01,12,3.40
2014,03,23,01,13,3.40
2014,03,23,01,14,3.40
2014,03,23,01,15,3.40
2014,03,23,01,16,3.40
2014,03,23,01,17,3.40
2014,03,23,01,18,3.40
2014,03,23,01,19,3.40
2014,03,23,01,20,3.40
2014,03,23,01,21,3.40
2014,03,23,01,22,3.40
2014,03,23,01,23,3.40
2014,03,23,01,24,3.40
2014,03,23,01,25,3.40
2014,03,23,01,26,3.40
2014,03,23,01,27,3.40
2014,03,23,01,28,3.40
2014,03,23,01,29,3.40
2014,03,23,01,30,3.40
2014,03,23,01,31,3.40
2014,03,23,01,32,3.40
2014,03,23,01,33,3.40
2014,03,23,01,34,3.40
2014,03,23,01,35,3.40
2014,03,23,01,36,3.40
2014,03,23,01,37,3.40
2014,03,23,01,38,3.40
2014,03,23,01,39,3.40
2014,03,23,01,40,3.40
2014,03,23,01,41,3.40
2014,03,23,01,42,3.40
2014,03,23,01,43,3.40
2014,03,23,01,44,3.40
2014,03,23,01,45,3.40
2014,03,23,01,46,3.40
2014,03,23,01,47,3.30
2014,03,23,01,48,3.30
2014,03,23,01,49,3.40
2014,03,23,01,50,3.40
2014,03,23,01,51,3.40
2014,03,23,01,52,3.40
2014,03,23,01,53,3.40
2014,03,23,01,54,3.40
2014,03,23,01,55,3.40
2014,03,23,01,56,3.40
2014,03,23,01,57,3.40
2014,03,23,01,58,3.50
2014,03,23,01,59,3.50
2014,03,23,02,00,3.50
2014,03,23,02,01,3.50
2014,03,23,02,02,3.50
2014,03,23,02,03,3.50
2014,03,23,02,04,3.50
2014,03,23,02,05,3.50
2014,03,23,02,06,3.60
2014,03,23,02,07,3.60
2014,03,23,02,08,3.60
2014,03,23,02,09,3.60
2014,03,23,02,10,3.60
2014,03,23,02,11,3.60
2014,03,23,02,12,3.60
2014,03,23,02,13,3.60
2014,03,23,02,14,3.60
2014,03,23,02,15,3.60
2014,03,23,02,16,3.60
2014,03,23,02,17,3.60
2014,03,23,02,18,3.60
2014,03,23,02,19,3.60
2014,03,23,02,20,3.60
2014,03,23,02,21,3.60
2014,03,23,02,22,3.50
2014,03,23,02,23,3.50
2014,03,23,02,24,3.50
2014,03,23,02,25,3.50
2014,03,23,02,26,3.50
2014,03,23,02,27,3.50
2014,03,23,02,28,3.50
2014,03,23,02,29,3.50
2014,03,23,02,30,3.50
2014,03,23,02,31,3.50
2014,03,23,02,32,3.50
2014,03,23,02,33,3.50
2014,03,23,02,34,3.50
2014,03,23,02,35,3.50
2014,03,23,02,36,3.50
2014,03,23,02,37,3.50
2014,03,23,02,38,3.50
2014,03,23,02,39,3.50
2014,03,23,02,40,3.50
2014,03,23,02,41,3.60
2014,03,23,02,42,3.60
2014,03,23,02,43,3.60
2014,03,23,02,44,3.60
2014,03,23,02,45,3.60
2014,03,23,02,46,3.60
2014,03,23,02,47,3.60
2014,03,23,02,48,3.70
2014,03,23,02,49,3.70
2014,03,23,02,50,3.70
2014,03,23,02,51,3.70
2014,03,23,02,52,3.70
2014,03,23,02,53,3.70
2014,03,23,02,54,3.70
2014,03,23,02,55,3.70
2014,03,23,02,56,3.70
2014,03,23,02,57,3.70
2014,03,23,02,58,3.70
2014,03,23,02,59,3.70
2014,03,23,03,00,3.70
2014,03,23,03,01,3.70
2014,03,23,03,02,3.70
2014,03,23,03,03,3.70
2014,03,23,03,04,3.70
2014,03,23,03,05,3.70
2014,03,23,03,06,3.70
2014,03,23,03,07,3.70
2014,03,23,03,08,3.70
2014,03,23,03,09,3.70
2014,03,23,03,10,3.70
2014,03,23,03,11,3.70
2014,03,23,03,12,3.70
2014,03,23,03,13,3.70
2014,03,23,03,14,3.70
2014,03,23,03,15,3.70
2014,03,23,03,16,3.70
2014,03,23,03,17,3.70
2014,03,23,03,18,3.70
2014,03,23,03,19,3.70
2014,03,23,03,20,3.70
2014,03,23,03,21,3.70
2014,03,23,03,22,3.70
2014,03,23,03,23,3.70
2014,03,23,03,24,3.70
2014,03,23,03,25,3.80
2014,03,23,03,26,3.80
2014,03,23,03,27,3.80
2014,03,23,03,28,3.80
2014,03,23,03,29,3.80
2014,03,23,03,30,3.80
2014,03,23,03,31,3.80
2014,03,23,03,32,3.80
2014,03,23,03,33,3.80
2014,03,23,03,34,3.80
2014,03,23,03,35,3.80
2014,03,23,03,36,3.80
2014,03,23,03,37,3.90
2014,03,23,03,38,3.90
2014,03,23,03,39,3.90
2014,03,23,03,40,3.90
2014,03,23,03,41,3.90
2014,03,23,03,42,3.90
2014,03,23,03,43,3.90
2014,03,23,03,44,3.90
2014,03,23,03,45,3.90
2014,03,23,03,46,3.90
2014,03,23,03,47,3.90
2014,03,23,03,48,3.90
2014,03,23,03,49,3.90
2014,03,23,03,50,3.90
2014,03,23,03,51,3.80
2014,03,23,03,52,3.80
2014,03,23,03,53,3.80
2014,03,23,03,54,3.80
2014,03,23,03,55,3.70
2014,03,23,03,56,3.70
2014,03,23,03,57,3.70
2014,03,23,03,58,3.70
2014,03,23,03,59,3.70
2014,03,23,04,00,3.60
2014,03,23,04,01,3.60
2014,03,23,04,02,3.60
2014,03,23,04,03,3.60
2014,03,23,04,04,3.60
2014,03,23,04,05,3.60
2014,03,23,04,06,3.60
2014,03,23,04,07,3.60
2014,03,23,04,08,3.60
2014,03,23,04,09,3.60
2014,03,23,04,10,3.60
2014,03,23,04,11,3.60
2014,03,23,04,12,3.60
2014,03,23,04,13,3.60
2014,03,23,04,14,3.60
2014,03,23,04,15,3.60
2014,03,23,04,16,3.60
2014,03,23,04,17,3.60
2014,03,23,04,18,3.60
2014,03,23,04,19,3.60
2014,03,23,04,20,3.60
2014,03,23,04,21,3.70
2014,03,23,04,22,3.70
2014,03,23,04,23,3.70
2014,03,23,04,24,3.70
2014,03,23,04,25,3.70
2014,03,23,04,26,3.70
2014,03,23,04,27,3.70
2014,03,23,04,28,3.70
2014,03,23,04,29,3.70
2014,03,23,04,30,3.80
2014,03,23,04,31,3.80
2014,03,23,04,32,3.80
2014,03,23,04,33,3.80
2014,03,23,04,34,3.80
2014,03,23,04,35,3.80
2014,03,23,04,36,3.80
2014,03,23,04,37,3.80
2014,03,23,04,38,3.80
2014,03,23,04,39,3.80
2014,03,23,04,40,3.80
2014,03,23,04,41,3.80
2014,03,23,04,42,3.80
2014,03,23,04,43,3.80
2014,03,23,04,44,3.80
2014,03,23,04,45,3.80
2014,03,23,04,46,3.80
2014,03,23,04,47,3.80
2014,03,23,04,48,3.90
2014,03,23,04,49,3.90
2014,03,23,04,50,3.90
2014,03,23,04,51,3.90
2014,03,23,04,52,3.90
2014,03,23,04,53,3.90
2014,03,23,04,54,3.90
2014,03,23,04,55,3.90
2014,03,23,04,56,3.90
2014,03,23,04,57,3.90
2014,03,23,04,58,3.90
2014,03,23,04,59,3.90
2014,03,23,05,00,3.90
2014,03,23,05,01,3.90
2014,03,23,05,02,3.90
2014,03,23,05,03,4.00
2014,03,23,05,04,4.00
2014,03,23,05,05,4.00
2014,03,23,05,06,4.00
2014,03,23,05,07,4.00
2014,03,23,05,08,4.00
2014,03,23,05,09,4.00
2014,03,23,05,10,4.00
2014,03,23,05,11,4.00
2014,03,23,05,12,4.00
2014,03,23,05,13,4.00
2014,03,23,05,14,4.00
2014,03,23,05,15,4.00
2014,03,23,05,16,4.00
2014,03,23,05,17,4.00
2014,03,23,05,18,4.00
2014,03,23,05,19,4.00
2014,03,23,05,20,4.00
2014,03,23,05,21,4.00
2014,03,23,05,22,4.00
2014,03,23,05,23,4.00
2014,03,23,05,24,4.00
2014,03,23,05,25,4.00
2014,03,23,05,26,4.00
2014,03,23,05,27,4.00
2014,03,23,05,28,4.00
2014,03,23,05,29,4.00
2014,03,23,05,30,4.00
2014,03,23,05,31,4.10
2014,03,23,05,32,4.10
2014,03,23,05,33,4.10
2014,03,23,05,34,4.10
2014,03,23,05,35,4.10
2014,03,23,05,36,4.10
2014,03,23,05,37,4.00
2014,03,23,05,38,4.00
2014,03,23,05,39,4.00
2014,03,23,05,40,4.00
2014,03,23,05,41,4.00
2014,03,23,05,42,4.00
2014,03,23,05,43,4.00
2014,03,23,05,44,4.00
2014,03,23,05,45,4.00
2014,03,23,05,46,4.00
2014,03,23,05,47,4.00
2014,03,23,05,48,4.00
2014,03,23,05,49,4.00
2014,03,23,05,50,4.00
2014,03,23,05,51,4.00
2014,03,23,05,52,4.00
2014,03,23,05,53,4.00
2014,03,23,05,54,4.00
2014,03,23,05,55,4.00
2014,03,23,05,56,4.10
2014,03,23,05,57,4.10
2014,03,23,05,58,4.00
2014,03,23,05,59,4.10
2014,03,23,06,00,4.10
2014,03,23,06,01,4.10
2014,03,23,06,02,4.10
2014,03,23,06,03,4.10
2014,03,23,06,04,4.00
2014,03,23,06,05,4.00
2014,03,23,06,06,4.00
2014,03,23,06,07,4.00
2014,03,23,06,08,3.90
2014,03,23,06,09,3.90
2014,03,23,06,10,3.90
2014,03,23,06,11,3.80
2014,03,23,06,12,3.80
2014,03,23,06,13,3.80
2014,03,23,06,14,3.80
2014,03,23,06,15,3.70
2014,03,23,06,16,3.70
2014,03,23,06,17,3.70
2014,03,23,06,18,3.70
2014,03,23,06,19,3.70
2014,03,23,06,20,3.60
2014,03,23,06,21,3.60
2014,03,23,06,22,3.60
2014,03,23,06,23,3.60
2014,03,23,06,24,3.60
2014,03,23,06,25,3.60
2014,03,23,06,26,3.60
2014,03,23,06,27,3.60
2014,03,23,06,28,3.60
2014,03,23,06,29,3.60
2014,03,23,06,30,3.60
2014,03,23,06,31,3.60
2014,03,23,06,32,3.60
2014,03,23,06,33,3.60
2014,03,23,06,34,3.60
2014,03,23,06,35,3.60
2014,03,23,06,36,3.60
2014,03,23,06,37,3.60
2014,03,23,06,38,3.60
2014,03,23,06,39,3.60
2014,03,23,06,40,3.60
2014,03,23,06,41,3.60
2014,03,23,06,42,3.60
2014,03,23,06,43,3.50
2014,03,23,06,44,3.50
2014,03,23,06,45,3.50
2014,03,23,06,46,3.50
2014,03,23,06,47,3.50
2014,03,23,06,48,3.50
2014,03,23,06,49,3.50
2014,03,23,06,50,3.40
2014,03,23,06,51,3.40
2014,03,23,06,52,3.40
2014,03,23,06,53,3.40
2014,03,23,06,54,3.40
2014,03,23,06,55,3.40
2014,03,23,06,56,3.40
2014,03,23,06,57,3.40
2014,03,23,06,58,3.50
2014,03,23,06,59,3.50
2014,03,23,07,00,3.50
2014,03,23,07,01,3.50
2014,03,23,07,02,3.60
2014,03,23,07,03,3.60
2014,03,23,07,04,3.60
2014,03,23,07,05,3.60
2014,03,23,07,06,3.70
2014,03,23,07,07,3.70
2014,03,23,07,08,3.70
2014,03,23,07,09,3.70
2014,03,23,07,10,3.80
2014,03,23,07,11,3.80
2014,03,23,07,12,3.80
2014,03,23,07,13,3.80
2014,03,23,07,14,3.80
2014,03,23,07,15,3.80
2014,03,23,07,16,3.80
2014,03,23,07,17,3.80
2014,03,23,07,18,3.80
2014,03,23,07,19,3.80
2014,03,23,07,20,3.70
2014,03,23,07,21,3.70
2014,03,23,07,22,3.70
2014,03,23,07,23,3.70
2014,03,23,07,24,3.70
2014,03,23,07,25,3.70
2014,03,23,07,26,3.70
2014,03,23,07,27,3.70
2014,03,23,07,28,3.70
2014,03,23,07,29,3.70
2014,03,23,07,30,3.70
2014,03,23,07,31,3.70
2014,03,23,07,32,3.70
2014,03,23,07,33,3.70
2014,03,23,07,34,3.70
2014,03,23,07,35,3.70
2014,03,23,07,36,3.70
2014,03,23,07,37,3.70
2014,03,23,07,38,3.70
2014,03,23,07,39,3.80
2014,03,23,07,40,3.80
2014,03,23,07,41,3.70
2014,03,23,07,42,3.70
2014,03,23,07,43,3.70
2014,03,23,07,44,3.70
2014,03,23,07,45,3.70
2014,03,23,07,46,3.70
2014,03,23,07,47,3.70
2014,03,23,07,48,3.70
2014,03,23,07,49,3.70
2014,03,23,07,50,3.60
2014,03,23,07,51,3.60
2014,03,23,07,52,3.70
2014,03,23,07,53,3.70
2014,03,23,07,54,3.70
2014,03,23,07,55,3.70
2014,03,23,07,56,3.70
2014,03,23,07,57,3.80
2014,03,23,07,58,3.80
2014,03,23,07,59,3.80
2014,03,23,08,00,3.90
2014,03,23,08,01,4.00
2014,03,23,08,02,4.00
2014,03,23,08,03,4.10
2014,03,23,08,04,4.10
2014,03,23,08,05,4.10
2014,03,23,08,06,4.10
2014,03,23,08,07,4.20
2014,03,23,08,08,4.20
2014,03,23,08,09,4.30
2014,03,23,08,10,4.30
2014,03,23,08,11,4.30
2014,03,23,08,12,4.30
2014,03,23,08,13,4.30
2014,03,23,08,14,4.40
2014,03,23,08,15,4.40
2014,03,23,08,16,4.40
2014,03,23,08,17,4.40
2014,03,23,08,18,4.40
2014,03,23,08,19,4.50
2014,03,23,08,20,4.50
2014,03,23,08,21,4.50
2014,03,23,08,22,4.50
2014,03,23,08,23,4.50
2014,03,23,08,24,4.50
2014,03,23,08,25,4.50
2014,03,23,08,26,4.50
2014,03,23,08,27,4.60
2014,03,23,08,28,4.60
2014,03,23,08,29,4.60
2014,03,23,08,30,4.60
2014,03,23,08,31,4.60
2014,03,23,08,32,4.60
2014,03,23,08,33,4.60
2014,03,23,08,34,4.60
2014,03,23,08,35,4.60
2014,03,23,08,36,4.70
2014,03,23,08,37,4.70
2014,03,23,08,38,4.70
2014,03,23,08,39,4.70
2014,03,23,08,40,4.80
2014,03,23,08,41,4.80
2014,03,23,08,42,4.80
2014,03,23,08,43,4.80
2014,03,23,08,44,4.80
2014,03,23,08,45,4.80
2014,03,23,08,46,4.80
2014,03,23,08,47,4.80
2014,03,23,08,48,4.80
2014,03,23,08,49,4.80
2014,03,23,08,50,4.70
2014,03,23,08,51,4.70
2014,03,23,08,52,4.70
2014,03,23,08,53,4.70
2014,03,23,08,54,4.70
2014,03,23,08,55,4.80
2014,03,23,08,56,4.80
2014,03,23,08,57,4.80
2014,03,23,08,58,4.80
2014,03,23,08,59,4.80
2014,03,23,09,00,4.80
2014,03,23,09,01,4.80
2014,03,23,09,02,4.80
2014,03,23,09,03,4.80
2014,03,23,09,04,4.90
2014,03,23,09,05,4.90
2014,03,23,09,06,5.00
2014,03,23,09,07,5.00
2014,03,23,09,08,5.10
2014,03,23,09,09,5.10
2014,03,23,09,10,5.10
2014,03,23,09,11,5.20
2014,03,23,09,12,5.20
2014,03,23,09,13,5.20
2014,03,23,09,14,5.20
2014,03,23,09,15,5.20
2014,03,23,09,16,5.30
2014,03,23,09,17,5.30
2014,03,23,09,18,5.30
2014,03,23,09,19,5.40
2014,03,23,09,20,5.40
2014,03,23,09,21,5.40
2014,03,23,09,22,5.50
2014,03,23,09,23,5.50
2014,03,23,09,24,5.60
2014,03,23,09,25,5.60
2014,03,23,09,26,5.60
2014,03,23,09,27,5.70
2014,03,23,09,28,5.70
2014,03,23,09,29,5.70
2014,03,23,09,30,5.70
2014,03,23,09,31,5.80
2014,03,23,09,32,5.80
2014,03,23,09,33,5.80
2014,03,23,09,34,5.90
2014,03,23,09,35,5.90
2014,03,23,09,36,5.90
2014,03,23,09,37,5.90
2014,03,23,09,38,5.90
2014,03,23,09,39,5.90
2014,03,23,09,40,5.90
2014,03,23,09,41,5.90
2014,03,23,09,42,5.90
2014,03,23,09,43,5.90
2014,03,23,09,44,5.90
2014,03,23,09,45,6.00
2014,03,23,09,46,6.00
2014,03,23,09,47,5.90
2014,03,23,09,48,5.90
2014,03,23,09,49,5.90
2014,03,23,09,50,5.90
2014,03,23,09,51,5.90
2014,03,23,09,52,5.90
2014,03,23,09,53,5.90
2014,03,23,09,54,5.90
2014,03,23,09,55,5.90
2014,03,23,09,56,5.90
2014,03,23,09,57,5.90
2014,03,23,09,58,5.90
2014,03,23,09,59,5.90
2014,03,23,10,00,5.90
2014,03,23,10,01,5.90
2014,03,23,10,02,6.00
2014,03,23,10,03,6.00
2014,03,23,10,04,6.10
2014,03,23,10,05,6.20
2014,03,23,10,06,6.20
2014,03,23,10,07,6.30
2014,03,23,10,08,6.40
2014,03,23,10,09,6.40
2014,03,23,10,10,6.40
2014,03,23,10,11,6.40
2014,03,23,10,12,6.40
2014,03,23,10,13,6.40
2014,03,23,10,14,6.30
2014,03,23,10,15,6.30
2014,03,23,10,16,6.30
2014,03,23,10,17,6.30
2014,03,23,10,18,6.20
2014,03,23,10,19,6.20
2014,03,23,10,20,6.20
2014,03,23,10,21,6.20
2014,03,23,10,22,6.20
2014,03,23,10,23,6.20
2014,03,23,10,24,6.20
2014,03,23,10,25,6.30
2014,03,23,10,26,6.30
2014,03,23,10,27,6.30
2014,03,23,10,28,6.30
2014,03,23,10,29,6.30
2014,03,23,10,30,6.30
2014,03,23,10,31,6.30
2014,03,23,10,32,6.30
2014,03,23,10,33,6.30
2014,03,23,10,34,6.20
2014,03,23,10,35,6.20
2014,03,23,10,36,6.20
2014,03,23,10,37,6.10
2014,03,23,10,38,6.00
2014,03,23,10,39,6.00
2014,03,23,10,40,5.90
2014,03,23,10,41,5.90
2014,03,23,10,42,5.90
2014,03,23,10,43,5.80
2014,03,23,10,44,5.80
2014,03,23,10,45,5.80
2014,03,23,10,46,5.80
2014,03,23,10,47,5.80
2014,03,23,10,48,5.80
2014,03,23,10,49,5.80
2014,03,23,10,50,5.80
2014,03,23,10,51,5.80
2014,03,23,10,52,5.80
2014,03,23,10,53,5.80
2014,03,23,10,54,5.80
2014,03,23,10,55,5.80
2014,03,23,10,56,5.80
2014,03,23,10,57,5.80
2014,03,23,10,58,5.80
2014,03,23,10,59,5.80
2014,03,23,11,00,5.70
2014,03,23,11,01,5.70
2014,03,23,11,02,5.70
2014,03,23,11,03,5.70
2014,03,23,11,04,5.70
2014,03,23,11,05,5.70
2014,03,23,11,06,5.70
2014,03,23,11,07,5.80
2014,03,23,11,08,5.80
2014,03,23,11,09,5.80
2014,03,23,11,10,5.80
2014,03,23,11,11,5.80
2014,03,23,11,12,5.80
2014,03,23,11,13,5.70
2014,03,23,11,14,5.70
2014,03,23,11,15,5.70
2014,03,23,11,16,5.70
2014,03,23,11,17,5.70
2014,03,23,11,18,5.70
2014,03,23,11,19,5.80
2014,03,23,11,20,5.80
2014,03,23,11,21,5.80
2014,03,23,11,22,5.80
2014,03,23,11,23,5.80
2014,03,23,11,24,5.70
2014,03,23,11,25,5.70
2014,03,23,11,26,5.70
2014,03,23,11,27,5.70
2014,03,23,11,28,5.70
2014,03,23,11,29,5.70
2014,03,23,11,30,5.70
2014,03,23,11,31,5.60
2014,03,23,11,32,5.60
2014,03,23,11,33,5.60
2014,03,23,11,34,5.60
2014,03,23,11,35,5.60
2014,03,23,11,36,5.60
2014,03,23,11,37,5.60
2014,03,23,11,38,5.60
2014,03,23,11,39,5.50
2014,03,23,11,40,5.50
2014,03,23,11,41,5.50
2014,03,23,11,42,5.50
2014,03,23,11,43,5.60
2014,03,23,11,44,5.60
2014,03,23,11,45,5.60
2014,03,23,11,46,5.60
2014,03,23,11,47,5.60
2014,03,23,11,48,5.60
2014,03,23,11,49,5.70
2014,03,23,11,50,5.70
2014,03,23,11,51,5.80
2014,03,23,11,52,5.80
2014,03,23,11,53,5.80
2014,03,23,11,54,5.70
2014,03,23,11,55,5.70
2014,03,23,11,56,5.70
2014,03,23,11,57,5.70
2014,03,23,11,58,5.70
2014,03,23,11,59,5.70
2014,03,23,12,00,5.70
2014,03,23,12,01,5.70
2014,03,23,12,02,5.70
2014,03,23,12,03,5.70
2014,03,23,12,04,5.70
2014,03,23,12,05,5.70
2014,03,23,12,06,5.70
2014,03,23,12,07,5.70
2014,03,23,12,08,5.70
2014,03,23,12,09,5.70
2014,03,23,12,10,5.70
2014,03,23,12,11,5.70
2014,03,23,12,12,5.70
2014,03,23,12,13,5.70
2014,03,23,12,14,5.80
2014,03,23,12,15,5.80
2014,03,23,12,16,5.90
2014,03,23,12,17,5.90
2014,03,23,12,18,5.90
2014,03,23,12,19,5.90
2014,03,23,12,20,5.80
2014,03,23,12,21,5.80
2014,03,23,12,22,5.80
2014,03,23,12,23,5.80
2014,03,23,12,24,5.80
2014,03,23,12,25,5.80
2014,03,23,12,26,5.90
2014,03,23,12,27,5.90
2014,03,23,12,28,5.90
2014,03,23,12,29,5.90
2014,03,23,12,30,5.90
2014,03,23,12,31,5.80
2014,03,23,12,32,5.80
2014,03,23,12,33,5.80
2014,03,23,12,34,5.90
2014,03,23,12,35,5.90
2014,03,23,12,36,5.90
2014,03,23,12,37,5.90
2014,03,23,12,38,5.90
2014,03,23,12,39,5.90
2014,03,23,12,40,5.90
2014,03,23,12,41,5.90
2014,03,23,12,42,5.90
2014,03,23,12,43,5.90
2014,03,23,12,44,5.90
2014,03,23,12,45,6.00
2014,03,23,12,46,6.00
2014,03,23,12,47,6.10
2014,03,23,12,48,6.10
2014,03,23,12,49,6.10
2014,03,23,12,50,6.10
2014,03,23,12,51,6.10
2014,03,23,12,52,6.10
2014,03,23,12,53,6.10
2014,03,23,12,54,6.10
2014,03,23,12,55,6.10
2014,03,23,12,56,6.10
2014,03,23,12,57,6.10
2014,03,23,12,58,6.20
2014,03,23,12,59,6.20
2014,03,23,13,00,6.20
2014,03,23,13,01,6.20
2014,03,23,13,02,6.20
2014,03,23,13,03,6.20
2014,03,23,13,04,6.20
2014,03,23,13,05,6.20
2014,03,23,13,06,6.20
2014,03,23,13,07,6.20
2014,03,23,13,08,6.20
2014,03,23,13,09,6.30
2014,03,23,13,10,6.30
2014,03,23,13,11,6.30
2014,03,23,13,12,6.30
2014,03,23,13,13,6.30
2014,03,23,13,14,6.30
2014,03,23,13,15,6.30
2014,03,23,13,16,6.20
2014,03,23,13,17,6.20
2014,03,23,13,18,6.20
2014,03,23,13,19,6.20
2014,03,23,13,20,6.20
2014,03,23,13,21,6.20
2014,03,23,13,22,6.20
2014,03,23,13,23,6.20
2014,03,23,13,24,6.20
2014,03,23,13,25,6.20
2014,03,23,13,26,6.20
2014,03,23,13,27,6.20
2014,03,23,13,28,6.30
2014,03,23,13,29,6.30
2014,03,23,13,30,6.30
2014,03,23,13,31,6.40
2014,03,23,13,32,6.40
2014,03,23,13,33,6.40
2014,03,23,13,34,6.50
2014,03,23,13,35,6.50
2014,03,23,13,36,6.50
2014,03,23,13,37,6.60
2014,03,23,13,38,6.60
2014,03,23,13,39,6.60
2014,03,23,13,40,6.60
2014,03,23,13,41,6.60
2014,03,23,13,42,6.50
2014,03,23,13,43,6.50
2014,03,23,13,44,6.40
2014,03,23,13,45,6.40
2014,03,23,13,46,6.40
2014,03,23,13,47,6.40
2014,03,23,13,48,6.40
2014,03,23,13,49,6.30
2014,03,23,13,50,6.30
2014,03,23,13,51,6.30
2014,03,23,13,52,6.40
2014,03,23,13,53,6.40
2014,03,23,13,54,6.40
2014,03,23,13,55,6.40
2014,03,23,13,56,6.40
2014,03,23,13,57,6.30
2014,03,23,13,58,6.30
2014,03,23,13,59,6.40
2014,03,23,14,00,6.40
2014,03,23,14,01,6.50
2014,03,23,14,02,6.50
2014,03,23,14,03,6.50
2014,03,23,14,04,6.50
2014,03,23,14,05,6.50
2014,03,23,14,06,6.50
2014,03,23,14,07,6.50
2014,03,23,14,08,6.50
2014,03,23,14,09,6.50
2014,03,23,14,10,6.40
2014,03,23,14,11,6.40
2014,03,23,14,12,6.40
2014,03,23,14,13,6.50
2014,03,23,14,14,6.50
2014,03,23,14,15,6.60
2014,03,23,14,16,6.50
2014,03,23,14,17,6.50
2014,03,23,14,18,6.50
2014,03,23,14,19,6.60
2014,03,23,14,20,6.60
2014,03,23,14,21,6.70
2014,03,23,14,22,6.60
2014,03,23,14,23,6.60
2014,03,23,14,24,6.60
2014,03,23,14,25,6.60
2014,03,23,14,26,6.60
2014,03,23,14,27,6.70
2014,03,23,14,28,6.70
2014,03,23,14,29,6.70
2014,03,23,14,30,6.70
2014,03,23,14,31,6.70
2014,03,23,14,32,6.70
2014,03,23,14,33,6.70
2014,03,23,14,34,6.80
2014,03,23,14,35,6.80
2014,03,23,14,36,6.90
2014,03,23,14,37,6.90
2014,03,23,14,38,7.00
2014,03,23,14,39,7.10
2014,03,23,14,40,7.20
2014,03,23,14,41,7.20
2014,03,23,14,42,7.10
2014,03,23,14,43,7.00
2014,03,23,14,44,7.00
2014,03,23,14,45,6.90
2014,03,23,14,46,6.90
2014,03,23,14,47,6.90
2014,03,23,14,48,6.90
2014,03,23,14,49,6.90
2014,03,23,14,50,6.90
2014,03,23,14,51,6.90
2014,03,23,14,52,6.80
2014,03,23,14,53,6.90
2014,03,23,14,54,6.90
2014,03,23,14,55,6.80
2014,03,23,14,56,6.80
2014,03,23,14,57,6.80
2014,03,23,14,58,6.80
2014,03,23,14,59,6.90
2014,03,23,15,00,6.90
2014,03,23,15,01,6.90
2014,03,23,15,02,6.80
2014,03,23,15,03,6.80
2014,03,23,15,04,6.80
2014,03,23,15,05,6.80
2014,03,23,15,06,6.80
2014,03,23,15,07,6.80
2014,03,23,15,08,6.80
2014,03,23,15,09,6.80
2014,03,23,15,10,6.80
2014,03,23,15,11,6.80
2014,03,23,15,12,6.90
2014,03,23,15,13,6.90
2014,03,23,15,14,6.90
2014,03,23,15,15,6.90
2014,03,23,15,16,6.80
2014,03,23,15,17,6.80
2014,03,23,15,18,6.70
2014,03,23,15,19,6.70
2014,03,23,15,20,6.70
2014,03,23,15,21,6.70
2014,03,23,15,22,6.70
2014,03,23,15,23,6.70
2014,03,23,15,24,6.70
2014,03,23,15,25,6.70
2014,03,23,15,26,6.70
2014,03,23,15,27,6.70
2014,03,23,15,28,6.80
2014,03,23,15,29,6.80
2014,03,23,15,30,6.80
2014,03,23,15,31,6.90
2014,03,23,15,32,6.90
2014,03,23,15,33,6.90
2014,03,23,15,34,6.90
2014,03,23,15,35,6.90
2014,03,23,15,36,6.90
2014,03,23,15,37,6.70
2014,03,23,15,38,6.70
2014,03,23,15,39,6.80
2014,03,23,15,40,6.80
2014,03,23,15,41,6.90
2014,03,23,15,42,6.90
2014,03,23,15,43,6.90
2014,03,23,15,44,6.90
2014,03,23,15,45,6.90
2014,03,23,15,46,6.90
2014,03,23,15,47,6.90
2014,03,23,15,48,6.80
2014,03,23,15,49,6.80
2014,03,23,15,50,6.80
2014,03,23,15,51,6.80
2014,03,23,15,52,6.90
2014,03,23,15,53,6.90
2014,03,23,15,54,6.90
2014,03,23,15,55,6.90
2014,03,23,15,56,6.80
2014,03,23,15,57,6.80
2014,03,23,15,58,6.80
2014,03,23,15,59,6.80
2014,03,23,16,00,6.90
2014,03,23,16,01,6.90
2014,03,23,16,02,7.00
2014,03,23,16,03,7.10
2014,03,23,16,04,7.10
2014,03,23,16,05,7.20
2014,03,23,16,06,7.20
2014,03,23,16,07,7.00
2014,03,23,16,08,6.90
2014,03,23,16,09,6.90
2014,03,23,16,10,6.80
2014,03,23,16,11,6.80
2014,03,23,16,12,6.80
2014,03,23,16,13,6.80
2014,03,23,16,14,6.80
2014,03,23,16,15,6.90
2014,03,23,16,16,6.90
2014,03,23,16,17,6.90
2014,03,23,16,18,7.00
2014,03,23,16,19,7.00
2014,03,23,16,20,7.10
2014,03,23,16,21,7.10
2014,03,23,16,22,7.10
2014,03,23,16,23,7.20
2014,03,23,16,24,7.20
2014,03,23,16,25,7.20
2014,03,23,16,26,7.20
2014,03,23,16,27,7.20
2014,03,23,16,28,7.20
2014,03,23,16,29,7.20
2014,03,23,16,30,7.20
2014,03,23,16,31,7.20
2014,03,23,16,32,7.30
2014,03,23,16,33,7.30
2014,03,23,16,34,7.40
2014,03,23,16,35,7.50
2014,03,23,16,36,7.60
2014,03,23,16,37,7.60
2014,03,23,16,38,7.60
2014,03,23,16,39,7.60
2014,03,23,16,40,7.60
2014,03,23,16,41,7.60
2014,03,23,16,42,7.60
2014,03,23,16,43,7.60
2014,03,23,16,44,7.60
2014,03,23,16,45,7.50
2014,03,23,16,46,7.50
2014,03,23,16,47,7.50
2014,03,23,16,48,7.50
2014,03,23,16,49,7.50
2014,03,23,16,50,7.60
2014,03,23,16,51,7.60
2014,03,23,16,52,7.70
2014,03,23,16,53,7.70
2014,03,23,16,54,7.80
2014,03,23,16,55,7.80
2014,03,23,16,56,7.90
2014,03,23,16,57,7.90
2014,03,23,16,58,8.00
2014,03,23,16,59,8.00
2014,03,23,17,00,7.90
2014,03,23,17,01,7.90
2014,03,23,17,02,7.90
2014,03,23,17,03,7.90
2014,03,23,17,04,7.90
2014,03,23,17,05,7.90
2014,03,23,17,06,7.90
2014,03,23,17,07,7.90
2014,03,23,17,08,7.90
2014,03,23,17,09,8.00
2014,03,23,17,10,8.00
2014,03,23,17,11,8.10
2014,03,23,17,12,8.10
2014,03,23,17,13,8.10
2014,03,23,17,14,8.10
2014,03,23,17,15,8.10
2014,03,23,17,16,8.20
2014,03,23,17,17,8.20
2014,03,23,17,18,8.20
2014,03,23,17,19,8.10
2014,03,23,17,20,8.10
2014,03,23,17,21,8.00
2014,03,23,17,22,8.00
2014,03,23,17,23,7.90
2014,03,23,17,24,7.90
2014,03,23,17,25,7.90
2014,03,23,17,26,7.90
2014,03,23,17,27,7.80
2014,03,23,17,28,7.80
2014,03,23,17,29,7.90
2014,03,23,17,30,7.90
2014,03,23,17,31,7.90
2014,03,23,17,32,7.90
2014,03,23,17,33,7.90
2014,03,23,17,34,7.90
2014,03,23,17,35,7.90
2014,03,23,17,36,7.90
2014,03,23,17,37,7.90
2014,03,23,17,38,7.80
2014,03,23,17,39,7.80
2014,03,23,17,40,7.80
2014,03,23,17,41,7.80
2014,03,23,17,42,7.80
2014,03,23,17,43,7.80
2014,03,23,17,44,7.90
2014,03,23,17,45,7.90
2014,03,23,17,46,7.90
2014,03,23,17,47,7.90
2014,03,23,17,48,7.90
2014,03,23,17,49,7.80
2014,03,23,17,50,7.90
2014,03,23,17,51,7.90
2014,03,23,17,52,7.90
2014,03,23,17,53,7.90
2014,03,23,17,54,7.90
2014,03,23,17,55,8.00
2014,03,23,17,56,8.10
2014,03,23,17,57,8.10
2014,03,23,17,58,8.20
2014,03,23,17,59,8.20
2014,03,23,18,00,8.20
2014,03,23,18,01,8.10
2014,03,23,18,02,8.10
2014,03,23,18,03,8.10
2014,03,23,18,04,8.10
2014,03,23,18,05,8.10
2014,03,23,18,06,8.10